Regional Weather Roundup
Issued by NWS

Home | Current Version | Previous Version | Graphics & Text | Print | Product List | Glossary On
Versions: 1 2 3 4 5 6 7 8 9 10 11 12 13 14 15 16 17 18 19 20 21 22 23 24 25 26 27 28 29 30 31 32 33 34 35 36 37 38 39 40 41 42 43 44 45 46 47 48 49 50
451
ASUS45 KPSR 241910
RWRAZ

ARIZONA HOURLY REGIONAL WEATHER ROUNDUP
NATIONAL WEATHER SERVICE PHOENIX AZ
1200 PM MST SAT FEB 24 2018

NOTE: FAIR INDICATES FEW OR NO CLOUDS BELOW 12,000 FEET WITH NO
SIGNIFICANT WEATHER AND/OR OBSTRUCTIONS TO VISIBILITY.

AZZ001>003-036-242000-
NORTHWEST ARIZONA

CITY           SKY/WX    TMP DP  RH WIND       PRES   REMARKS
BULLHEAD CITY  SUNNY     52  10  19 N6G14     30.31F
KINGMAN        SUNNY     42   5  21 VRB3      30.24F
$$

AZZ004>008-015-016-018-242000-
NORTH CENTRAL ARIZONA

CITY           SKY/WX    TMP DP  RH WIND       PRES   REMARKS
GRAND CANYON   SUNNY     24  12  60 SW12      30.13S WCI  13
WILLIAMS       SUNNY     27  -4  26 NW5       30.12F WCI  21
PRESCOTT       SUNNY     34  15  46 VRB7      30.20F WCI  28
FLAGSTAFF      SUNNY     26  11  52 SW10      30.10F WCI  16
PAYSON         SUNNY     37  10  32 VRB5G12   30.17F WCI  34
PAGE           SUNNY     35   8  32 NE6       30.15F WCI  30
$$

AZZ009>014-017-242000-
NORTHEAST ARIZONA

CITY           SKY/WX    TMP DP  RH WIND       PRES   REMARKS
WINSLOW        SUNNY     33  19  56 VRB5      30.17F WCI  29
SAINT JOHNS    MOSUNNY   31  21  66 W9        30.15F WCI  23
WINDOW ROCK    SUNNY     32   9  38 W13G20    30.07F WCI  22
SHOW LOW       SUNNY     30  14  51 S5        30.15F WCI  25
$$

AZZ540-542>544-546-548-242000-
GREATER PHOENIX AREA

CITY           SKY/WX    TMP DP  RH WIND       PRES   REMARKS
PHOENIX        MOSUNNY   52  22  30 W3        30.25F
BUCKEYE        SUNNY     52  18  25 NW5       30.28F
GLENDALE       SUNNY     54  21  28 CALM      30.28F
LUKE AFB       SUNNY     53  22  30 CALM      30.25F
DEER VALLEY    SUNNY     52  19  27 W5        30.24F
SCOTTSDALE     SUNNY     52  23  32 VRB5      30.25F
MESA-FALCON    SUNNY     52  25  35 S3        30.25F
MESA-GATEWAY   SUNNY     50  23  34 CALM      30.27F
CHANDLER       SUNNY     52  23  32 SW3       30.26F
$$

AZZ539-553-242000-
SOUTHWEST MARICOPA COUNTY AND PINAL COUNTY

CITY           SKY/WX    TMP DP  RH WIND       PRES   REMARKS
CASA GRANDE    NOT AVBL
GILA BEND      FAIR      52  21  29 CALM      30.27F
$$

AZZ503-504-507>509-242000-
SOUTHEAST ARIZONA

CITY           SKY/WX    TMP DP  RH WIND       PRES   REMARKS
TUCSON         SUNNY     49  19  30 NW5       30.24F
DAVIS-MONTHAN  SUNNY     50  18  28 CALM      30.21F
RYAN FIELD     SUNNY     48  23  37 CALM      30.25F
NOGALES        SUNNY     52   6  15 N7        30.17F
SIERRA VISTA   SUNNY     44   4  19 N3        30.19F
DOUGLAS        SUNNY     48   5  17 N16       30.18F
SAFFORD        SUNNY     49  13  23 W15       30.17F
$$

AZZ532-242000-
SOUTHWEST ARIZONA

CITY           SKY/WX    TMP DP  RH WIND       PRES   REMARKS
YUMA           SUNNY     58  11  15 N12G18    30.32F
$$

CAZ041-043-047-048-061-525>527-560>570-242000-
SOUTHERN CALIFORNIA

CITY           SKY/WX    TMP DP  RH WIND       PRES   REMARKS
DOWNTOWN L.A.  SUNNY     60  16  18 CALM      30.32F
L.A. AIRPORT   SUNNY     58  16  19 W9        30.34F
SAN DIEGO      SUNNY     59  24  26 VRB3      30.34F
BURBANK        SUNNY     55  13  18 CALM      30.31F
ONTARIO        MOSUNNY   54  15  21 VRB5      30.32F
RIVERSIDE      SUNNY     55  15  20 CALM      30.32F
PALM SPRINGS   SUNNY     57   5  12 CALM      30.34F
EL CENTRO NAS  SUNNY     57   7  13 VRB3      30.36F
IMPERIAL       SUNNY     59  14  17 N7        30.33F
BLYTHE         SUNNY     57   9  14 N12       30.32F
NEEDLES        SUNNY     54   9  16 VRB3      30.30F
$$

NVZ020-UTZ003-242000-
SOUTHERN NEVADA-UTAH

CITY           SKY/WX    TMP DP  RH WIND       PRES   REMARKS
LAS VEGAS      MOSUNNY   45   7  21 E8        30.25F
SALT LAKE CITY CLOUDY    29  14  53 S13       30.10F WCI  19
$$

NMZ009-TXZ055-242000-
NEW MEXICO-WEST TEXAS

CITY           SKY/WX    TMP DP  RH WIND       PRES   REMARKS
ALBUQUERQUE    MOSUNNY   38   7  27 NW15G25   30.08F WCI  29
EL PASO        MOSUNNY   52   5  15 N14G22    30.08F
$$


........................KEY........................
SKY/WX - SKY CONDITION/WEATHER
TMP    - TEMPERATURE IN FAHRENHEIT
DP     - DEW POINT IN FAHRENHEIT
RH     - RELATIVE HUMIDITY IN PERCENT
WIND   - DIRECTION AND SPEED IN MILES PER HOUR (MPH)
VRB    - VARIABLE WIND DIRECTION
PRES   - MEAN SEA LEVEL PRESSURE IN INCHES OF MERCURY
         F - FALLING PRESSURE   R - RISING PRESSURE
         S - STEADY PRESSURE
VSB    - VISIBILITY IN MILES
HX     - HEAT INDEX IN FAHRENHEIT
WCI    - WIND CHILL INDEX IN FAHRENHEIT
TC     - TEMPERATURE IN CELSIUS WHICH IS ALSO KNOWN AS
         TEMPERATURE IN CENTIGRADE
AFB    - AIR FORCE BASE
         LUKE AFB IS LUKE AIR FORCE BASE
         DAVIS-MONTHAN IS DAVIS-MONTHAN AIR FORCE BASE
NAS    - NAVAL AIR STATION
         EL CENTRO NAS IS EL CENTRO NAVAL AIR STATION
N/A    - NOT AVAILABLE





USA.gov is the U.S. government's official web portal to all federal, state and local government web resources and services.